(171696) = 2000 SK137

Discovered at Socorro on 2000-09-23 by LINEAR.

Orbit

Orbit type: Main Belt

Note: WebGL enabled browser required.

epoch2023-09-13.0
epoch JD2460200.5
perihelion date2020-11-13.87216
perihelion JD2459167.37216
argument of perihelion (°)108.12689
ascending node (°)306.62873
inclination (°)4.83884
eccentricity0.1529924
perihelion distance (AU)1.8785383
Tisserand w.r.t. Jupiter3.6
ΔV w.r.t. Earth (km/sec)8.6
semimajor axis (AU)2.2178529
mean anomaly (°)308.28955
mean daily motion (°/day)0.29840410
aphelion distance (AU)2.557
period (years)3.3
P-vector [x]0.57434675
P-vector [y]0.71556323
P-vector [z]0.39761170
Q-vector [x]-0.81580830
Q-vector [y]0.54049318
Q-vector [z]0.20572785
absolute magnitude16.73
phase slope0.15
uncertainty0
referenceMPEC 2024-A48
observations used773
oppositions12
arc length (days)8494
first opposition used2000
last opposition used2023
residual rms (arc-secs)0.71
perturbers coarse indicatorM-v
perturbers precise indicator003Ek
first observation date used2000-09-03.0
last observation date used2023-12-06.0
computer nameMPCLINUX
JD of orbit computation2456670.724830
perihelion JD uncertainty (days)6.8515E-05
argument of perihelion uncertainty (°)6.3817E-05
ascending node uncertainty (°)5.9231E-05
inclination uncertainty (°)4.4850E-06
eccentricity uncertainty 4.0693E-08
perihelion distance uncertainty (AU)9.2315E-08
Minimum Orbit Intersection Distances (in AU)
for orbit epoch: 2460200.5, reference: E2024-A48
Mercury1.56631
Venus1.1624
Earth0.8958
Mars0.3577
Jupiter2.77484
Saturn7.06702
Uranus16.083
Neptune27.8848

Observations

786 total observations over interval: 2000 09 03.32743 – 2023 12 06.155298
These data are available for download (format description).

Date (UT) J2000 RA J2000 Dec Magn Location Ref
2000 09 03.32743 00 59 32.64 +14 03 37.8 18.7   704 – Lincoln Laboratory ETS, New Mexico MPS 21260
2000 09 03.34065 00 59 32.26 +14 03 40.0 19.1   704 – Lincoln Laboratory ETS, New Mexico MPS 21260
2000 09 03.35375 00 59 31.99 +14 03 42.3 19.0   704 – Lincoln Laboratory ETS, New Mexico MPS 21260
2000 09 03.36686 00 59 31.72 +14 03 44.6 19.3   704 – Lincoln Laboratory ETS, New Mexico MPS 21260
2000 09 03.37995 00 59 31.42 +14 03 47.2 19.0   704 – Lincoln Laboratory ETS, New Mexico MPS 21260
2000 09 23.32738 00 46 49.22 +14 17 14.6 18.5   704 – Lincoln Laboratory ETS, New Mexico MPS 20015
2000 09 23.34188 00 46 48.44 +14 17 13.0 18.7   704 – Lincoln Laboratory ETS, New Mexico MPS 20015
2000 09 23.37071 00 46 46.69 +14 17 11.6 19.8   704 – Lincoln Laboratory ETS, New Mexico MPS 20015
2000 09 23.38510 00 46 45.95 +14 17 09.3 19.6   704 – Lincoln Laboratory ETS, New Mexico MPS 20015
2000 09 25.47178 00 44 51.66 +14 12 58.0 19.8   608 – Haleakala-AMOS MPS 20016
2000 09 25.48220 00 44 51.05 +14 12 56.7 19.6   608 – Haleakala-AMOS MPS 20016
2000 09 25.49273 00 44 50.42 +14 12 55.7 19.5   608 – Haleakala-AMOS MPS 20016
2000 09 28.28696 00 42 10.95 +14 05 37.9 19.0   704 – Lincoln Laboratory ETS, New Mexico MPS 20016
2000 09 28.30200 00 42 09.98 +14 05 35.3 18.7   704 – Lincoln Laboratory ETS, New Mexico MPS 20016
2000 09 28.31708 00 42 09.08 +14 05 32.8 19.0   704 – Lincoln Laboratory ETS, New Mexico MPS 20016
2000 09 28.33211 00 42 08.23 +14 05 30.6 19.2   704 – Lincoln Laboratory ETS, New Mexico MPS 20016
2000 10 03.34245 00 37 10.45 +13 48 17.2 18.5   704 – Lincoln Laboratory ETS, New Mexico MPS 20016
2000 10 03.35738 00 37 09.46 +13 48 14.2 18.8   704 – Lincoln Laboratory ETS, New Mexico MPS 20016
2000 10 03.37233 00 37 08.59 +13 48 10.6 19.0   704 – Lincoln Laboratory ETS, New Mexico MPS 20016
2000 10 03.38732 00 37 07.60 +13 48 06.4 19.2   704 – Lincoln Laboratory ETS, New Mexico MPS 20016
2000 10 03.40230 00 37 06.66 +13 48 03.1 19.2   704 – Lincoln Laboratory ETS, New Mexico MPS 20016
2000 10 25.22422 00 17 42.69 +11 56 31.3 18.6   704 – Lincoln Laboratory ETS, New Mexico MPS 21260
2000 10 25.23801 00 17 42.11 +11 56 27.3 19.3   704 – Lincoln Laboratory ETS, New Mexico MPS 21260
2000 10 25.25189 00 17 41.49 +11 56 22.1 19.3   704 – Lincoln Laboratory ETS, New Mexico MPS 21260
2000 10 25.26638 00 17 40.99 +11 56 16.4 19.1   704 – Lincoln Laboratory ETS, New Mexico MPS 21260
2000 10 25.28014 00 17 40.34 +11 56 12.9 19.1   704 – Lincoln Laboratory ETS, New Mexico MPS 21260
2000 10 31.20936 00 14 22.86 +11 25 20.5 18.2   704 – Lincoln Laboratory ETS, New Mexico MPS 21260
2000 10 31.22387 00 14 22.41 +11 25 16.7 19.1   704 – Lincoln Laboratory ETS, New Mexico MPS 21260
2000 10 31.23785 00 14 21.94 +11 25 12.9 18.7   704 – Lincoln Laboratory ETS, New Mexico MPS 21260
2000 10 31.25182 00 14 21.66 +11 25 07.8 19.0   704 – Lincoln Laboratory ETS, New Mexico MPS 21260
2000 10 31.26606 00 14 21.16 +11 25 04.7 18.4   704 – Lincoln Laboratory ETS, New Mexico MPS 21260
2000 11 03.15967 00 13 12.35 +11 11 21.9 19.0   704 – Lincoln Laboratory ETS, New Mexico MPS 21260
2000 11 03.17430 00 13 12.01 +11 11 16.9 19.4   704 – Lincoln Laboratory ETS, New Mexico MPS 21260
2000 11 03.20238 00 13 11.28 +11 11 09.7 19.2   704 – Lincoln Laboratory ETS, New Mexico MPS 21260
2003 07 25.31422 21 25 29.18 -14 25 18.7 19.1   704 – Lincoln Laboratory ETS, New Mexico MPS 82386
2003 07 25.33608 21 25 27.88 -14 25 20.2 19.7   704 – Lincoln Laboratory ETS, New Mexico MPS 82386
2003 07 25.34646 21 25 27.32 -14 25 22.3 19.6   704 – Lincoln Laboratory ETS, New Mexico MPS 82386
2003 07 26.26911 21 24 35.75 -14 26 45.5 18.7   644 – Palomar Mountain/NEAT MPS 82386
2003 07 26.28959 21 24 34.54 -14 26 47.7 18.8   644 – Palomar Mountain/NEAT MPS 82386
2003 07 26.32532 21 24 32.42 -14 26 51.2 18.8   644 – Palomar Mountain/NEAT MPS 82386
2003 08 04.29654 21 15 21.95 -14 43 11.9 19.2   704 – Lincoln Laboratory ETS, New Mexico MPS 82632
2003 08 04.30696 21 15 21.32 -14 43 11.7 19.1   704 – Lincoln Laboratory ETS, New Mexico MPS 82632
2003 08 04.31743 21 15 20.61 -14 43 13.5 18.9   704 – Lincoln Laboratory ETS, New Mexico MPS 82632
2003 08 04.32782 21 15 19.88 -14 43 13.8 18.7   704 – Lincoln Laboratory ETS, New Mexico MPS 82632
2003 08 25.21346 20 53 00.61 -15 22 40.6 18.6   704 – Lincoln Laboratory ETS, New Mexico MPS 83263
2003 08 25.22576 20 52 59.90 -15 22 41.7 19.6   704 – Lincoln Laboratory ETS, New Mexico MPS 83263
2003 08 25.23891 20 52 59.13 -15 22 42.3 19.5   704 – Lincoln Laboratory ETS, New Mexico MPS 83263
2003 08 25.25202 20 52 58.20 -15 22 44.8 19.4   704 – Lincoln Laboratory ETS, New Mexico MPS 83263
2003 08 25.26457 20 52 57.56 -15 22 45.9 19.1   704 – Lincoln Laboratory ETS, New Mexico MPS 83263
2003 08 26.02489 20 52 14.93 -15 23 43.5 17.7 R 807 – Cerro Tololo Observatory, La Serena MPS 83968
2003 08 26.12384 20 52 09.13 -15 23 52.3   807 – Cerro Tololo Observatory, La Serena MPS 83968
2005 03 03.29917 10 38 30.96 +03 21 40.6 18.3 R 703 – Catalina Sky Survey MPS 127102
2005 03 03.30719 10 38 30.37 +03 21 42.3 18.2 R 703 – Catalina Sky Survey MPS 127102
2005 03 03.31527 10 38 29.86 +03 21 44.3 18.7 R 703 – Catalina Sky Survey MPS 127102
2005 03 03.32336 10 38 29.39 +03 21 46.4 18.4 R 703 – Catalina Sky Survey MPS 127102
2005 03 10.20724 10 31 21.08 +03 52 54.3 18.7 R 699 – Lowell Observatory-LONEOS MPS 127785
2005 03 10.22833 10 31 19.85 +03 52 59.5   699 – Lowell Observatory-LONEOS MPS 127785
2005 03 10.24869 10 31 18.50 +03 53 07.2 18.8 R 703 – Catalina Sky Survey MPS 127785
2005 03 10.24940 10 31 18.47 +03 53 06.3   699 – Lowell Observatory-LONEOS MPS 127785
2005 03 10.25839 10 31 17.88 +03 53 09.6 18.7 R 703 – Catalina Sky Survey MPS 127785
2005 03 10.26808 10 31 17.29 +03 53 11.3 18.6 R 703 – Catalina Sky Survey MPS 127785
2005 03 10.27049 10 31 17.17 +03 53 12.1   699 – Lowell Observatory-LONEOS MPS 127785
2005 03 10.27773 10 31 16.64 +03 53 14.7 18.3 R 703 – Catalina Sky Survey MPS 127785
2005 03 12.21713 10 29 23.58 +04 01 53.8 18.8   704 – Lincoln Laboratory ETS, New Mexico MPS 128921
2005 03 12.22855 10 29 22.89 +04 01 55.3 18.8   704 – Lincoln Laboratory ETS, New Mexico MPS 128921
2005 03 12.24014 10 29 22.25 +04 01 59.7 19.4   704 – Lincoln Laboratory ETS, New Mexico MPS 128921
2005 03 12.25160 10 29 21.54 +04 02 03.2 19.3   704 – Lincoln Laboratory ETS, New Mexico MPS 128921
2005 03 12.26375 10 29 20.80 +04 02 06.5 19.6   704 – Lincoln Laboratory ETS, New Mexico MPS 128921
2005 03 17.35760 10 24 45.15 +04 23 55.3 19.0 R 703 – Catalina Sky Survey MPS 128921
2005 03 17.36630 10 24 44.62 +04 23 56.4 19.3 R 703 – Catalina Sky Survey MPS 128921
2005 03 17.37688 10 24 44.14 +04 23 58.7 19.1 R 703 – Catalina Sky Survey MPS 128921
2005 03 17.38559 10 24 43.63 +04 24 01.6 19.0 R 703 – Catalina Sky Survey MPS 128921
2005 03 30.21112 10 16 08.64 +05 08 53.4 19.7   644 – Palomar Mountain/NEAT MPS 132516
2005 03 30.23174 10 16 07.96 +05 08 56.8 19.5   644 – Palomar Mountain/NEAT MPS 132516
2005 03 30.25153 10 16 07.34 +05 09 00.1 20.4   644 – Palomar Mountain/NEAT MPS 132516
2005 03 31.20683 10 15 40.71 +05 11 35.9 19.8   644 – Palomar Mountain/NEAT MPS 130156
2005 03 31.22701 10 15 40.06 +05 11 38.9 19.5   644 – Palomar Mountain/NEAT MPS 130156
2005 03 31.24648 10 15 39.51 +05 11 42.6 19.3   644 – Palomar Mountain/NEAT MPS 130156
2007 11 07.44149 07 42 05.84 +26 15 15.2 19.7   704 – Lincoln Laboratory ETS, New Mexico MPS 226686
2007 11 07.45386 07 42 06.38 +26 15 11.7 19.9   704 – Lincoln Laboratory ETS, New Mexico MPS 226686
2007 11 07.46638 07 42 07.08 +26 15 13.1 19.7   704 – Lincoln Laboratory ETS, New Mexico MPS 226686
2007 11 07.47875 07 42 07.71 +26 15 12.3 19.7   704 – Lincoln Laboratory ETS, New Mexico MPS 226686
2007 11 07.49110 07 42 08.37 +26 15 09.6 19.6   704 – Lincoln Laboratory ETS, New Mexico MPS 226686
2007 11 12.34173 07 45 53.82 +26 05 32.8 19.5 V G96 – Mt. Lemmon Survey MPS 229684
2007 11 12.34955 07 45 54.10 +26 05 32.1 19.3 V G96 – Mt. Lemmon Survey MPS 229684
2007 11 12.35748 07 45 54.43 +26 05 31.2 19.3 V G96 – Mt. Lemmon Survey MPS 229684
2007 11 12.36534 07 45 54.68 +26 05 30.4 19.4 V G96 – Mt. Lemmon Survey MPS 229684
